User: anonymous   Login
Location: Chandolas
(44.4033°N, 4.2533°E)
Time: 21:28:57
(UTC+00:00)
Language:

ASTEX 1 - Orbit

View from above orbital plane
View from above orbital plane
View from above satellite
View from above satellite

Ground track
Ground track

The orbit data is extracted from the following two-line orbital elements,

1  5560U 71089A   20027.44368613  .00000060  00000-0  16391-4 0  9997
2  5560  92.7153 151.1982 0017868  52.7512 307.5319 14.48050890539211
Epoch (UTC): 27 January 2020 10:38:54
Eccentricity: 0.0017868
inclination: 92.7153°
perigee height: 719 km
apogee height: 745 km
right ascension of ascending node: 151.1982°
argument of perigee: 52.7512°
revolutions per day: 14.48050890
mean anomaly at epoch: 307.5319°
orbit number at epoch: 53921

The dashed part of the orbit path shows where the satellite is in the earth's shadow,  

DLR